Location: ???? ????
(41.4149°N, 22.8816°E)
Time: 11:55:38
(UTC+00:00)

Cosmos 1140 Rocket - Pass Details

Date: 14 July 2020
Orbit: 744 x 768 km, 74.1° (Epoch: 09 August)

Event Time Altitude Azimuth Distance (km) Brightness Sun altitude
Exits shadow 00:52:13 33° 244° (WSW) 1,249 4.1 -19.3°
Maximum altitude 00:54:02 47° 294° (WNW) 1,003 4.0 -19.1°
Drops below altitude 10° 00:59:05 10° 8° (N) 2,309 6.9 -18.6°
Sets 01:01:34 0° 15° (NNE) 3,242 8.0 -18.3°
